Location: Azul
(36.7830°S, 59.8500°W)
Time: 01:06:31
(UTC-03:00)

HuskySat-1 - Pass Details

Date: 25 October 2021
Orbit: 443 x 456 km, 51.6° (Epoch: 04 December)

Event Time Altitude Azimuth Distance (km) Brightness Sun altitude
Rises 20:36:33 0° 327° (NNW) 2,475 ? -14.0°
Reaches altitude 10° 20:38:44 10° 334° (NNW) 1,608 ? -14.4°
Maximum altitude 20:42:12 43° 46° (NE) 661 ? -15.0°
Enters shadow 20:44:16 21° 108° (ESE) 1,100 ? -15.3°
